sat.trackr.live / text

‹ back to catalog

STARLINK-6314

NORAD 56538 · 2023-065AM

PAYLOAD ACTIVE UNKNOWN

§ Identity

Operator
Country
US
Launch date
2023-05-14
Launch site
AFETR
Launch vehicle
Mass (kg)
RCS (m²)

Purposes: comms

External: N2YO · Heavens-Above · Gunter

§ Orbital elements

Epoch: 2026-09-20T01:40:35.266368Z

Period
94.27 min
Inclination
43.0016°
Eccentricity
0.0000784
Mean motion
15.27578098 rev/d
Perigee alt
482.5 km
Apogee alt
483.6 km
Semi-major
6,861.2 km
B*
5.2234e-6
RAAN
180.3424°
Arg perigee
235.3449°
Mean anomaly
124.7329°
Rev number
18,649

§ Raw data

STARLINK-63141 56538U 23065AM  26263.06985262 -.00000118  00000+0  52234-5 0  99912 56538  43.0016 180.3424 0000784 235.3449 124.7329 15.27578098186492

JSON: /api/v1/satellites/56538 · /tle

For live sub-satellite position, see the globe view (requires WebGL).

§ Visibility from observer

Set your observer location to see the next 7 days of passes ≥ 10°. The values pass through the URL so the page stays shareable.

No JS? Fill the form by hand. The geolocation button needs JavaScript.